Stündliche Wetter Abdul-Gazy

Heute, 17 Juni, Donnerstag

Zeit Temperatur Niederschläge Wind Luftdruck Luftfeuchtigkeit
00:00 +26°C° 0 mm 5 m/S 750 mmHg 66%
01:00 +25°C° 0 mm 5 m/S 750 mmHg 66%
02:00 +25°C° 0 mm 5 m/S 749 mmHg 67%
03:00 +25°C° 0 mm 5 m/S 749 mmHg 68%
04:00 +25°C° 0 mm 5 m/S 749 mmHg 67%
05:00 +26°C° 0 mm 5 m/S 749 mmHg 66%
06:00 +26°C° 0 mm 6 m/S 749 mmHg 65%
07:00 +28°C° 0 mm 5 m/S 749 mmHg 60%
08:00 +29°C° 0 mm 4 m/S 749 mmHg 54%
09:00 +32°C° 0 mm 4 m/S 750 mmHg 48%
10:00 +33°C° 0 mm 4 m/S 750 mmHg 45%
11:00 +34°C° 0 mm 4 m/S 750 mmHg 43%
12:00 +35°C° 0 mm 5 m/S 750 mmHg 40%
13:00 +35°C° 0 mm 6 m/S 750 mmHg 41%
14:00 +35°C° 0 mm 8 m/S 750 mmHg 42%
15:00 +35°C° 0 mm 9 m/S 750 mmHg 42%
16:00 +34°C° 0 mm 10 m/S 751 mmHg 46%
17:00 +32°C° 0 mm 10 m/S 752 mmHg 51%
18:00 +29°C° 0 mm 10 m/S 753 mmHg 55%
19:00 +28°C° 0.1 mm 9 m/S 754 mmHg 59%
20:00 +26°C° 0.1 mm 8 m/S 755 mmHg 63%
21:00 +23°C° 0.1 mm 8 m/S 756 mmHg 67%
22:00 +23°C° 0 mm 7 m/S 756 mmHg 69%
23:00 +22°C° 0 mm 7 m/S 756 mmHg 71%

Morgen, 18 Juni, Freitag

Zeit Temperatur Niederschläge Wind Luftdruck Luftfeuchtigkeit
00:00 +22°C° 0 mm 6 m/S 757 mmHg 73%
01:00 +21°C° 0 mm 6 m/S 757 mmHg 74%
02:00 +21°C° 0 mm 5 m/S 757 mmHg 75%
03:00 +20°C° 0 mm 5 m/S 757 mmHg 76%
04:00 +20°C° 0 mm 5 m/S 757 mmHg 75%
05:00 +20°C° 0 mm 6 m/S 758 mmHg 74%
06:00 +20°C° 0 mm 6 m/S 758 mmHg 73%
07:00 +22°C° 0.1 mm 6 m/S 758 mmHg 66%
08:00 +24°C° 0.1 mm 6 m/S 758 mmHg 59%
09:00 +27°C° 0.1 mm 6 m/S 758 mmHg 52%
10:00 +28°C° 0.1 mm 5 m/S 758 mmHg 48%
11:00 +30°C° 0.1 mm 4 m/S 757 mmHg 43%
12:00 +31°C° 0.1 mm 3 m/S 757 mmHg 38%
13:00 +33°C° 0 mm 3 m/S 757 mmHg 37%
14:00 +34°C° 0 mm 2 m/S 757 mmHg 36%
15:00 +34°C° 0 mm 2 m/S 757 mmHg 35%
16:00 +34°C° 0 mm 2 m/S 757 mmHg 35%
17:00 +33°C° 0 mm 1 m/S 757 mmHg 35%
18:00 +33°C° 0 mm 1 m/S 757 mmHg 35%
19:00 +32°C° 0 mm 1 m/S 757 mmHg 39%
20:00 +31°C° 0 mm 2 m/S 757 mmHg 43%
21:00 +29°C° 0 mm 2 m/S 757 mmHg 48%
22:00 +28°C° 0 mm 2 m/S 757 mmHg 54%
23:00 +27°C° 0 mm 3 m/S 757 mmHg 61%

übermorgen, 19 Juni, Samstag

Zeit Temperatur Niederschläge Wind Luftdruck Luftfeuchtigkeit
00:00 +26°C° 0 mm 3 m/S 758 mmHg 67%
01:00 +26°C° 0 mm 3 m/S 758 mmHg 70%
02:00 +25°C° 0 mm 4 m/S 758 mmHg 73%
03:00 +25°C° 0 mm 4 m/S 758 mmHg 75%
04:00 +26°C° 0 mm 4 m/S 758 mmHg 72%
05:00 +26°C° 0 mm 5 m/S 758 mmHg 68%
06:00 +26°C° 0 mm 6 m/S 758 mmHg 65%
07:00 +28°C° 0 mm 6 m/S 758 mmHg 57%
08:00 +30°C° 0 mm 7 m/S 758 mmHg 49%
09:00 +33°C° 0 mm 8 m/S 758 mmHg 41%
10:00 +33°C° 0 mm 9 m/S 758 mmHg 37%
11:00 +34°C° 0 mm 10 m/S 757 mmHg 33%
12:00 +36°C° 0 mm 11 m/S 757 mmHg 30%
13:00 +36°C° 0 mm 11 m/S 757 mmHg 29%
14:00 +36°C° 0 mm 11 m/S 757 mmHg 29%
15:00 +36°C° 0 mm 12 m/S 757 mmHg 28%
16:00 +34°C° 0 mm 11 m/S 757 mmHg 31%
17:00 +33°C° 0 mm 10 m/S 757 mmHg 33%
18:00 +32°C° 0 mm 9 m/S 757 mmHg 35%
19:00 +29°C° 0 mm 9 m/S 757 mmHg 35%
20:00 +28°C° 0 mm 8 m/S 757 mmHg 35%
21:00 +27°C° 0 mm 8 m/S 757 mmHg 36%
22:00 +26°C° 0 mm 7 m/S 757 mmHg 36%
23:00 +26°C° 0 mm 7 m/S 757 mmHg 37%

20 Juni, Sonntag

Zeit Temperatur Niederschläge Wind Luftdruck Luftfeuchtigkeit
00:00 +26°C° 0 mm 6 m/S 756 mmHg 37%
01:00 +26°C° 0 mm 7 m/S 756 mmHg 39%
02:00 +26°C° 0 mm 7 m/S 756 mmHg 41%
03:00 +26°C° 0 mm 7 m/S 756 mmHg 43%
04:00 +26°C° 0 mm 7 m/S 756 mmHg 45%
05:00 +26°C° 0 mm 7 m/S 756 mmHg 47%
06:00 +27°C° 0 mm 7 m/S 756 mmHg 50%
07:00 +29°C° 0 mm 8 m/S 756 mmHg 44%
08:00 +33°C° 0 mm 8 m/S 755 mmHg 38%
09:00 +35°C° 0 mm 9 m/S 755 mmHg 32%
10:00 +37°C° 0 mm 10 m/S 755 mmHg 29%
11:00 +39°C° 0 mm 11 m/S 755 mmHg 26%
12:00 +41°C° 0 mm 12 m/S 754 mmHg 23%
13:00 +39°C° 0 mm 12 m/S 754 mmHg 23%
14:00 +39°C° 0 mm 12 m/S 755 mmHg 24%
15:00 +38°C° 0 mm 13 m/S 755 mmHg 24%
16:00 +37°C° 0 mm 12 m/S 755 mmHg 25%
17:00 +36°C° 0 mm 11 m/S 755 mmHg 26%
18:00 +33°C° 0 mm 11 m/S 755 mmHg 27%
19:00 +32°C° 0 mm 10 m/S 756 mmHg 30%
20:00 +29°C° 0 mm 10 m/S 756 mmHg 33%
21:00 +28°C° 0 mm 9 m/S 756 mmHg 37%
22:00 +28°C° 0 mm 9 m/S 756 mmHg 40%
23:00 +27°C° 0 mm 8 m/S 756 mmHg 43%

21 Juni, Montag

Zeit Temperatur Niederschläge Wind Luftdruck Luftfeuchtigkeit
00:00 +27°C° 0 mm 8 m/S 755 mmHg 46%
01:00 +26°C° 0 mm 7 m/S 755 mmHg 48%
02:00 +26°C° 0 mm 7 m/S 755 mmHg 50%
03:00 +26°C° 0 mm 7 m/S 755 mmHg 52%
04:00 +26°C° 0 mm 7 m/S 755 mmHg 49%
05:00 +27°C° 0 mm 7 m/S 755 mmHg 46%
06:00 +27°C° 0 mm 7 m/S 755 mmHg 43%
07:00 +31°C° 0 mm 8 m/S 755 mmHg 36%
08:00 +33°C° 0 mm 9 m/S 755 mmHg 30%
09:00 +36°C° 0 mm 10 m/S 755 mmHg 24%
10:00 +37°C° 0 mm 11 m/S 755 mmHg 20%
11:00 +39°C° 0 mm 12 m/S 754 mmHg 16%
12:00 +41°C° 0 mm 12 m/S 754 mmHg 12%
13:00 +41°C° 0 mm 12 m/S 754 mmHg 13%
14:00 +39°C° 0 mm 13 m/S 754 mmHg 13%
15:00 +39°C° 0 mm 13 m/S 754 mmHg 14%
16:00 +38°C° 0 mm 12 m/S 754 mmHg 16%
17:00 +36°C° 0 mm 11 m/S 755 mmHg 18%
18:00 +34°C° 0 mm 10 m/S 755 mmHg 20%
19:00 +32°C° 0 mm 9 m/S 755 mmHg 24%
20:00 +29°C° 0 mm 8 m/S 755 mmHg 28%
21:00 +28°C° 0 mm 7 m/S 756 mmHg 32%
22:00 +27°C° 0 mm 7 m/S 755 mmHg 33%
23:00 +27°C° 0 mm 7 m/S 755 mmHg 35%

22 Juni, Dienstag

Zeit Temperatur Niederschläge Wind Luftdruck Luftfeuchtigkeit
00:00 +27°C° 0 mm 7 m/S 755 mmHg 36%
01:00 +26°C° 0 mm 6 m/S 755 mmHg 40%
02:00 +26°C° 0 mm 5 m/S 755 mmHg 44%
03:00 +25°C° 0 mm 5 m/S 755 mmHg 48%
04:00 +26°C° 0 mm 5 m/S 755 mmHg 50%
05:00 +26°C° 0 mm 5 m/S 755 mmHg 52%
06:00 +27°C° 0 mm 5 m/S 755 mmHg 54%
07:00 +29°C° 0 mm 6 m/S 755 mmHg 43%
08:00 +33°C° 0 mm 7 m/S 755 mmHg 32%
09:00 +35°C° 0 mm 8 m/S 755 mmHg 22%
10:00 +38°C° 0 mm 8 m/S 755 mmHg 19%
11:00 +40°C° 0 mm 9 m/S 754 mmHg 16%
12:00 +43°C° 0 mm 9 m/S 754 mmHg 13%
13:00 +43°C° 0 mm 10 m/S 754 mmHg 12%
14:00 +43°C° 0 mm 10 m/S 754 mmHg 12%
15:00 +44°C° 0 mm 11 m/S 753 mmHg 11%
16:00 +42°C° 0 mm 10 m/S 754 mmHg 14%
17:00 +40°C° 0 mm 9 m/S 754 mmHg 16%
18:00 +38°C° 0 mm 9 m/S 754 mmHg 19%
19:00 +35°C° 0 mm 8 m/S 755 mmHg 24%
20:00 +33°C° 0 mm 7 m/S 755 mmHg 29%
21:00 +29°C° 0 mm 5 m/S 755 mmHg 33%
22:00 +29°C° 0 mm 5 m/S 755 mmHg 36%
23:00 +28°C° 0 mm 5 m/S 755 mmHg 39%
Mehr zeigen

Wir brauchen deine Erlaubnis

Meteoprog und unser Service Anbieter werden persönliche Daten aufbewahren, so wie Cookies, Geräte Bezeichnung oder ähnliche Technologien von deinem Gerät und Prozess, so wie Persönliche Daten Inhalte und Werbungen, genauso wie social Media und den Verkehr zu analysieren.

  • Aufbewahrung und/oder Zugang zu deiner Geräte Informationen.

    Cookies, Geräte Bezeichnung oder andere Informationen, können aufbewahrt oder Zugang zu deinem Gerät erhalten, für den Grund, der oben angegeben wird.

  • Personalisierte Werbung und Inhalte, Messungen, Einblick in das Publikum und Produkt Entwicklung.

    Werbungen und Inhalte können personalisiert werden, basierend auf ein Profil. Mehr Daten können besser personalisierte Werbungen und Inhalte hinzufügen. Werbung und Inhalte können gezeigt und gemessen werden. Einblicke über das Publikum, welche die Werbung gesehen haben und den Inhalt, können abgeleitet werden. So wie Daten können genutzt werden, um es zu verbessern oder die Benutzer Erfahrung zu verbessern das System und die Software.

Wenn du “Ich stimme zu” klickst, erlaubst du uns, die Cookies zu benutzen die Geräte Bezeichnung, den Web oder ähnliche Technologien zu benutzen. Deine Settings, können in deinem Gerät bei deinem Browser geändert werden.

Für den bestimmten Zweck, berechtigten Interessen beruhen darauf, mehr als auf den Inhalt. Du kannst mehr darüber in unseren Privaten und Cookie Politik lesen.